Stations météo

réclame
Mon MeteoGroup
Cazaux, France (7502): Température de l'air & dewpoint: 09.12.2018 13:00:00 - 15.12.2018 13:00:00 (CET)Cazaux, France (7502): Température de l'air 5cm: 09.12.2018 13:00:00 - 15.12.2018 13:00:00 (CET)Cazaux, France (7502): Température de l'air -20cm & Température de l'air -100cm: 09.12.2018 13:00:00 - 15.12.2018 13:00:00 (CET)Cazaux, France (7502): Vitesse du vent & gusts: 09.12.2018 13:00:00 - 15.12.2018 13:00:00 (CET)Cazaux, France (7502): Direction du vent: 09.12.2018 13:00:00 - 15.12.2018 13:00:00 (CET)Cazaux, France (7502): reduced air pressure: 09.12.2018 13:00:00 - 15.12.2018 13:00:00 (CET)Cazaux, France (7502): visibility: 09.12.2018 13:00:00 - 15.12.2018 13:00:00 (CET)Cazaux, France (7502): Quantités de précipitations: 09.12.2018 13:00:00 - 15.12.2018 13:00:00 (CET)
Date & Time tt [°C] td [°C] tt 5cm [°C] tt -20cm [°C] tt -100cm [°C] ff [km/h] ff [knt] fx [km/h] fx [knt] dd ppp [hPa] vv [km] rr [mm]
15.12.2018 13:00:00 10,4 10,1 9,8 10,8 15,0 8 4 16 9 S 1018,3 15 0,0
15.12.2018 12:00:00 9,5 9,0 9,0 10,8 15,0 11 6 16 9 S 1018,9 10 1,6
15.12.2018 11:00:00 9,1 8,6 8,7 10,8 15,0 11 6 18 10 SSE 1019,9 12 0,0
15.12.2018 10:00:00 8,5 8,2 7,6 10,8 15,0 13 7 18 10 SSE 1019,7 12 0,6
15.12.2018 09:00:00 7,6 7,3 6,9 10,8 15,0 6 3 8 5 SE 1020,0 7 0,2
15.12.2018 08:00:00 6,8 6,5 6,2 10,8 15,0 5 3 11 6 NE 1020,0 6 0,0
15.12.2018 07:00:00 6,1 5,8 5,3 10,9 15,0 5 3 7 4 E 1020,2 4,5 0,2
15.12.2018 06:00:00 5,1 4,7 4,6 10,9 15,0 3 2 7 4 E 1020,7 3,9 0,0
15.12.2018 05:00:00 4,4 4,0 3,8 11,0 15,1 4 2 8 5 E 1021,1 1,2 0,0
15.12.2018 04:00:00 3,8 3,2 3,0 11,0 15,1 3 2 10 5 E 1021,5 4,9 0,0
15.12.2018 03:00:00 4,2 3,6 3,4 11,1 15,1 9 5 11 6 E 1022,0 6 0,0
15.12.2018 02:00:00 4,6 4,0 3,7 11,1 15,1 4 2 7 4 E 1022,2 9 0,0
15.12.2018 01:00:00 4,0 3,1 2,6 11,1 15,1 8 5 10 6 E 1022,5 9 0,0
15.12.2018 00:00:00 4,1 3,2 1,6 11,1 15,1 3 2 10 5 ESE 1023,1 15 0,0
14.12.2018 23:00:00 5,0 4,1 4,1 11,2 15,1 4 2 7 4 E 1023,2 12 0,0
14.12.2018 22:00:00 5,3 4,4 3,1 11,2 15,1 2 1 5 3 ENE 1023,5 11 0,0
14.12.2018 21:00:00 4,0 2,8 1,0 11,2 15,1 2 1 3 2 ENE 1023,4 8 0,0
14.12.2018 20:00:00 6,1 4,4 4,1 11,2 15,1 3 1 4 2 ENE 1023,3 18 0,0
14.12.2018 19:00:00 6,9 4,9 5,9 11,2 15,1 5 3 9 5 ENE 1022,9 17 0,0
14.12.2018 18:00:00 6,3 4,6 3,2 11,2 15,1 4 2 7 4 NW 1022,9 7 0,0
14.12.2018 17:00:00 7,8 4,0 7,4 11,1 15,1 4 2 17 9 NE 1021,9 19 0,0
14.12.2018 16:00:00 8,9 4,5 9,8 11,1 15,1 9 5 21 11 N 1021,9 19 0,0
14.12.2018 15:00:00 8,5 5,6 8,4 11,1 15,1 13 7 23 12 NW 1021,4 10 0,0
14.12.2018 14:00:00 8,5 5,1 9,9 11,1 15,1 12 6 27 15 NNW 1021,0 14 0,0
14.12.2018 13:00:00 8,1 5,4 8,1 11,0 15,1 8 5 22 12 NW 1020,4 9 0,0
14.12.2018 12:00:00 7,9 4,7 8,2 11,0 15,1 11 6 18 10 NW 1020,8 14 0,0
14.12.2018 11:00:00 7,7 5,7 7,8 11,1 15,1 9 5 17 9 NNW 1019,7 12 0,0
14.12.2018 10:00:00 7,8 7,4 7,2 11,0 15,1 8 5 19 10 NNW 1018,8 8 0,0
14.12.2018 09:00:00 7,8 7,5 7,4 11,1 15,1 8 4 13 7 N 1017,6 7 0,0
14.12.2018 08:00:00 7,5 7,2 7,3 11,1 15,1 2 1 5 3 WSW 1016,9 4,7 0,0
14.12.2018 07:00:00 7,3 7,0 6,4 11,1 15,1 2 1 10 5 WNW 1016,0 6 0,0
14.12.2018 06:00:00 7,4 7,1 7,3 11,1 15,1 4 2 8 4 N 1015,1 4,8 0,0
14.12.2018 05:00:00 7,4 7,1 7,1 11,1 15,2 5 3 7 4 N 1014,8 6 0,0
14.12.2018 04:00:00 7,5 7,2 6,4 11,1 15,2 3 2 5 3 NE 1014,2 3,3 0,0
14.12.2018 03:00:00 7,1 6,7 6,1 11,1 15,2 0 0 5 3 N 1013,9 0,4 0,0
14.12.2018 02:00:00 7,5 7,1 7,1 11,1 15,2 4 2 6 4 NNE 1013,5 2,9 0,0
14.12.2018 01:00:00 7,6 7,2 7,2 11,1 15,2 0 0 4 2 N 1013,2 5 0,0
14.12.2018 00:00:00 7,7 7,3 7,6 11,1 15,2 3 2 7 4 NW 1012,8 6 0,0
13.12.2018 23:00:00 7,6 7,2 7,6 11,1 15,2 0 0 6 3 N 1012,3 7 0,0
13.12.2018 22:00:00 7,6 7,2 7,5 11,1 15,2 0 0 8 5 N 1011,5 9 0,0
13.12.2018 21:00:00 7,7 7,3 7,5 11,1 15,2 5 3 11 6 NNE 1010,8 7 0,0
13.12.2018 20:00:00 7,9 7,5 7,6 11,1 15,2 6 3 12 6 NNE 1010,1 5 0,5
13.12.2018 19:00:00 8,0 7,6 7,9 11,0 15,2 5 3 11 6 N 1009,2 6 0,2
13.12.2018 18:00:00 8,0 7,6 7,8 11,0 15,2 6 4 15 8 N 1008,4 4,4 1,8
13.12.2018 17:00:00 8,1 7,7 7,9 11,0 15,2 12 7 20 11 NE 1007,0 8 1,4
13.12.2018 16:00:00 9,0 8,5 8,9 11,0 15,2 8 4 12 7 ENE 1006,1 4,6 1,2
13.12.2018 15:00:00 9,0 8,5 9,0 10,9 15,2 4 2 12 7 ENE 1005,4 6 0,8
13.12.2018 14:00:00 8,9 8,4 8,7 10,9 15,3 10 5 13 7 E 1005,1 8 0,2
13.12.2018 13:00:00 8,5 8,1 8,4 10,9 15,2 8 5 13 7 E 1005,5 5 0,0
13.12.2018 12:00:00 8,1 7,7 7,8 10,9 15,3 8 4 11 6 E 1005,8 11 0,0
13.12.2018 11:00:00 7,7 7,3 7,3 10,9 15,3 7 4 12 6 E 1005,8 9 0,6
13.12.2018 10:00:00 7,3 6,9 6,8 10,9 15,3 6 3 10 6 E 1005,8 9 0,2
13.12.2018 09:00:00 7,0 6,4 6,6 10,9 15,3 5 3 19 10 E 1005,8 10 0,4
13.12.2018 08:00:00 6,7 6,1 5,9 10,9 15,3 10 5 14 7 E 1005,6 12 0,0
13.12.2018 07:00:00 6,4 5,8 5,9 10,9 15,3 6 3 12 6 SE 1006,4 18 0,0
13.12.2018 06:00:00 6,6 6,0 6,3 11,0 15,3 9 5 16 8 E 1007,0 12 0,0
13.12.2018 05:00:00 6,8 6,2 6,4 11,0 15,3 8 4 16 8 E 1008,0 16 0,0
13.12.2018 04:00:00 6,7 6,1 6,2 11,0 15,3 8 4 16 9 E 1008,7 27 0,0
13.12.2018 03:00:00 6,5 5,9 6,0 11,0 15,3 8 4 18 10 E 1009,8 25 0,0
13.12.2018 02:00:00 7,0 6,3 6,7 11,0 15,3 10 5 13 7 ENE 1010,3 28 0,0
13.12.2018 01:00:00 7,5 6,8 6,4 11,0 15,4 12 6 14 8 ESE 1011,0 20 0,0
13.12.2018 00:00:00 7,2 6,5 6,6 11,0 15,4 0 0 9 5 N 1011,9 25 0,0
12.12.2018 23:00:00 7,0 6,3 5,8 11,0 15,4 4 2 8 4 E 1012,8 28 0,0
12.12.2018 22:00:00 7,0 6,1 6,1 11,0 15,4 3 2 6 4 ENE 1014,1 20 0,0
12.12.2018 21:00:00 7,1 6,5 5,5 11,1 15,4 4 2 9 5 NE 1014,8 19 0,0
12.12.2018 20:00:00 6,2 5,5 4,1 11,1 15,4 5 3 7 4 S 1015,7 17 0,0
12.12.2018 19:00:00 6,6 5,9 3,0 11,0 15,5 4 2 5 3 SSW 1016,4 9 0,0
12.12.2018 18:00:00 7,1 5,9 3,0 10,9 15,4 0 0 6 3 N 1016,9 19 0,0
12.12.2018 17:00:00 9,5 6,8 5,5 10,8 15,4 0 0 12 6 N 1017,2 20 0,0
12.12.2018 16:00:00 11,8 6,9 10,4 10,8 15,4 7 4 22 12 W 1017,5 41 0,0
12.12.2018 15:00:00 13,8 6,6 13,3 10,7 15,4 14 8 28 15 WNW 1017,7 58 0,0
12.12.2018 14:00:00 13,0 7,2 13,4 10,7 15,5 11 6 25 13 W 1018,5 54 0,0
12.12.2018 13:00:00 13,6 8,0 10,4 10,7 15,5 14 8 27 14 WNW 1019,4 54 0,2
12.12.2018 12:00:00 12,5 7,4 11,3 10,7 15,5 11 6 28 15 WNW 1020,0 53 0,0
12.12.2018 11:00:00 12,2 8,3 10,8 10,7 15,5 13 7 24 13 WNW 1020,3 40 0,0
12.12.2018 10:00:00 12,2 9,4 8,6 10,7 15,5 9 5 17 9 W 1020,2 35 0,0
12.12.2018 09:00:00 9,8 8,4 6,0 10,7 15,5 10 5 17 9 WNW 1020,4 32 0,0
12.12.2018 08:00:00 9,9 8,3 7,5 10,7 15,5 9 5 29 15 WNW 1020,3 20 0,0
12.12.2018 07:00:00 10,5 10,2 6,7 10,8 15,5 13 7 21 11 WNW 1019,9 16 0,0
12.12.2018 06:00:00 6,8 6,4 5,4 10,8 15,5 5 3 10 6 S 1019,7 3,9 1,4
12.12.2018 05:00:00 5,3 4,7 2,8 10,9 15,5 5 3 9 5 S 1020,1 11 0,0
12.12.2018 04:00:00 2,6 2,0 -1,0 11,0 15,5 6 4 10 5 SE 1020,9 17 0,0
12.12.2018 03:00:00 1,9 1,5 -2,0 11,0 15,5 5 3 10 5 S 1021,2 13 0,0
12.12.2018 02:00:00 1,0 0,3 -0,7 11,1 15,6 7 4 10 5 ESE 1021,3 18 0,0
12.12.2018 01:00:00 0,9 0,0 -2,0 11,1 15,6 4 2 6 3 SE 1021,7 12 0,0
12.12.2018 00:00:00 1,4 0,5 -1,0 11,2 15,6 3 2 6 3 SW 1021,8 10 0,0
11.12.2018 23:00:00 2,4 1,5 -0,1 11,3 15,6 0 0 5 3 N 1021,8 3,7 0,0
11.12.2018 22:00:00 2,3 1,1 -0,6 11,3 15,6 3 2 7 4 NW 1021,7 11 0,0
11.12.2018 21:00:00 3,9 3,0 -0,6 11,3 15,6 5 3 8 5 ENE 1021,6 25 0,0
11.12.2018 20:00:00 3,7 2,2 0,8 11,3 15,6 7 4 14 8 ENE 1021,1 37 0,0
11.12.2018 19:00:00 5,8 2,3 2,4 11,3 15,6 4 2 16 9 NNW 1021,5 55 0,0
11.12.2018 18:00:00 8,1 3,0 5,1 11,3 15,6 8 4 18 10 NE 1021,1 1,1 0,0
11.12.2018 17:00:00 9,3 3,1 8,0 11,2 15,6 6 3 20 11 NE 1021,4 60 0,0
11.12.2018 16:00:00 11,1 3,9 11,9 11,2 15,7 14 8 23 12 ENE 1021,0 57 0,0
11.12.2018 15:00:00 11,8 3,5 13,0 11,2 15,7 18 10 27 15 E 1021,5 42 0,0
11.12.2018 14:00:00 11,4 3,4 11,8 11,2 15,6 19 11 34 18 E 1021,9 60 0,0
11.12.2018 13:00:00 10,6 3,8 11,2 11,3 15,7 23 13 33 18 E 1022,9 48 0,0
11.12.2018 12:00:00 8,7 5,6 9,1 11,3 15,7 16 8 22 12 E 1024,2 37 0,0
11.12.2018 11:00:00 6,8 5,6 5,6 11,4 15,7 10 5 16 9 E 1025,0 28 0,0
11.12.2018 10:00:00 3,6 3,3 1,8 11,5 15,6 5 3 16 9 ENE 1024,9 17 0,0
11.12.2018 09:00:00 1,7 1,4 0,0 11,6 15,7 11 6 19 10 E 1024,7 12 0,0
11.12.2018 08:00:00 1,0 0,7 0,2 11,7 15,7 6 4 15 8 E 1024,9 20 0,0
11.12.2018 07:00:00 1,2 0,9 0,5 11,8 15,7 7 4 11 6 ENE 1025,0 18 0,0
11.12.2018 06:00:00 1,2 0,9 0,6 11,9 15,7 7 4 11 6 ENE 1025,7 0,6 0,0
11.12.2018 05:00:00 1,6 1,3 -0,6 11,9 15,7 5 3 9 5 NE 1026,4 0,2 0,2
11.12.2018 04:00:00 1,8 1,4 -0,6 12,0 15,7 4 2 7 4 NNE 1027,3 0,5 0,0
11.12.2018 03:00:00 2,0 1,6 -0,4 12,1 15,7 4 2 7 4 NNE 1027,8 11 0,0
11.12.2018 02:00:00 1,6 1,2 -0,8 12,2 15,7 5 3 8 4 N 1028,4 0,3 0,0
11.12.2018 01:00:00 2,2 1,6 -1,1 12,3 15,7 0 0 6 4 N 1028,8 2,6 0,0
11.12.2018 00:00:00 2,5 1,9 -0,6 12,4 15,7 6 3 8 4 N 1029,6 1,1 0,0
10.12.2018 23:00:00 3,8 3,2 0,4 12,4 15,7 3 2 4 2 N 1029,7 3,7 0,0
10.12.2018 22:00:00 4,0 3,3 -0,1 12,4 15,7 0 0 6 3 N 1030,1 6 0,0
10.12.2018 21:00:00 4,6 3,7 0,4 12,5 15,7 2 1 4 2 N 1030,6 15 0,0
10.12.2018 20:00:00 5,9 5,0 2,0 12,5 15,7 0 0 8 4 N 1030,9 4,5 0,0
10.12.2018 19:00:00 6,9 5,5 2,2 12,5 15,7 0 0 4 2 N 1030,9 10 0,0
10.12.2018 18:00:00 8,6 6,4 4,0 12,4 15,7 0 0 8 4 N 1031,1 9 0,0
10.12.2018 17:00:00 11,6 6,7 11,0 12,4 15,7 6 3 10 5 ENE 1031,3 39 0,0
10.12.2018 16:00:00 12,0 6,9 12,0 12,3 15,7 8 5 17 9 NE 1031,3 34 0,0
10.12.2018 15:00:00 12,6 7,5 13,5 12,3 15,7 13 7 22 12 NNE 1031,6 28 0,0
10.12.2018 14:00:00 14,2 7,0 13,3 12,3 15,7 11 6 18 10 WNW 1032,1 20 0,0
10.12.2018 13:00:00 13,7 7,0 17,4 12,3 15,7 10 6 17 9 NNW 1032,8 19 0,0
10.12.2018 12:00:00 12,7 9,5 14,0 12,4 15,7 8 4 12 7 SW 1033,4 14 0,0
10.12.2018 11:00:00 10,1 9,8 8,7 12,5 15,7 4 2 5 3 S 1034,0 10 0,0
10.12.2018 10:00:00 7,5 7,1 4,3 12,5 15,7 0 0 3 2 N 1033,9 11 0,0
10.12.2018 09:00:00 4,4 3,8 1,0 12,6 15,7 2 1 5 3 SW 1033,7 0,4 0,0
10.12.2018 08:00:00 4,4 3,8 0,9 12,7 15,7 2 1 5 3 NW 1033,3 2,6 0,0
10.12.2018 07:00:00 4,3 3,6 2,1 12,8 15,7 2 1 6 3 W 1033,1 0,7 0,0
10.12.2018 06:00:00 6,3 5,4 1,8 12,8 15,7 4 2 8 4 WNW 1033,0 10 0,0
10.12.2018 05:00:00 6,1 5,2 1,8 12,9 15,7 3 2 5 3 W 1033,1 0,7 0,0
10.12.2018 04:00:00 6,9 5,8 2,5 13,0 15,7 0 0 2 1 N 1033,4 1,4 0,0
10.12.2018 03:00:00 9,1 7,4 5,1 13,0 15,7 0 0 16 8 N 1033,4 10 0,0
10.12.2018 02:00:00 10,2 8,1 5,9 13,1 15,7 4 2 13 7 WNW 1033,4 10 0,0
10.12.2018 01:00:00 9,8 7,0 5,7 13,1 15,7 6 4 16 9 W 1033,6 13 0,0
10.12.2018 00:00:00 10,8 7,7 7,3 13,1 15,7 11 6 19 10 WNW 1033,5 14 0,0
09.12.2018 23:00:00 10,8 7,8 7,9 13,2 15,7 8 5 15 8 W 1033,2 12 0,0
09.12.2018 22:00:00 11,3 8,2 9,1 13,2 15,7 9 5 19 11 WNW 1032,8 13 0,0
09.12.2018 21:00:00 11,4 8,1 9,3 13,2 15,7 11 6 33 18 WNW 1032,5 17 0,0
09.12.2018 20:00:00 11,5 9,2 9,8 13,2 15,7 12 6 40 22 WNW 1031,9 16 0,2
09.12.2018 19:00:00 11,7 9,3 10,6 13,2 15,7 26 14 50 27 NW 1031,2 7 0,2
09.12.2018 18:00:00 12,4 8,1 11,2 13,2 15,7 19 10 47 26 W 1030,1 12 0,0
09.12.2018 17:00:00 12,9 7,3 11,9 13,2 15,7 21 11 49 26 WNW 1029,6 14 0,0
09.12.2018 16:00:00 13,3 7,9 11,4 13,1 15,7 22 12 53 29 WNW 1029,1 14 0,0
09.12.2018 15:00:00 13,7 8,1 11,6 13,2 15,7 24 13 46 25 WNW 1028,5 13 0,0
09.12.2018 14:00:00 13,7 8,7 12,6 13,1 15,7 22 12 40 21 WNW 1028,2 11 0,0
09.12.2018 13:00:00 13,4 8,5 13,1 13,1 15,7 21 12 45 24 W 1028,3 12 0,0

tt = Température de l'air
td = dewpoint
tt 5cm = Température de l'air 5cm
tt -20cm = Température de l'air -20cm
tt -100cm = Température de l'air -100cm
ff = Vitesse du vent
fx = gusts
dd = Direction du vent
ppp = reduced air pressure
vv = visibility
rr = Quantités de précipitations

stations d'obs. à proximité